Regional Weather Roundup
Issued by NWS

Home | Current Version | Previous Version | Text Only | Print | Product List | Glossary On
Versions: 1 2 3 4 5 6 7 8 9 10 11 12 13 14 15 16 17 18 19 20 21 22 23 24 25 26 27 28 29 30 31 32 33 34 35 36 37 38 39 40 41 42 43 44 45 46 47 48 49 50
000
ASUS43 KTOP 291508
RWRKS

WEATHER ROUNDUP FOR KANSAS
NATIONAL WEATHER SERVICE GOODLAND KS
1000 AM CDT FRI AUG 29 2014

NOTE:  "FAIR" INDICATES FEW OR NO CLOUDS BELOW 12,000 FEET WITH NO
SIGNIFICANT WEATHER AND/OR OBSTRUCTIONS TO VISIBILITY.

KSZ001>006-013>018-027>032-041>047-291600-
NORTHWEST KANSAS

CITY           SKY/WX    TMP DP  RH WIND       PRES   REMARKS
GOODLAND       SUNNY     69  55  60 NW10      30.00R
HAYS           MOSUNNY   66  57  72 NW10      29.91R
HILL CITY      SUNNY     68  59  73 NW8       29.91S
RUSSELL        MOSUNNY   71  62  73 W7        29.88S
$$

KSZ061>065-074>080-084>089-291600-
SOUTHWEST KANSAS

CITY           SKY/WX    TMP DP  RH WIND       PRES   REMARKS
DODGE CITY     SUNNY     72  57  59 W7        29.95R
ELKHART          N/A     70  55  59 W5          N/A
GARDEN CITY    SUNNY     68  55  63 NW9       29.97S
GREAT BEND     SUNNY     72  61  68 W6        29.90F
LIBERAL        SUNNY     72  55  56 NW15      30.00S
PRATT          SUNNY     72  61  68 W3        29.93R
$$

KSZ066>073-081>083-090>101-291600-
SOUTHEAST KANSAS

CITY           SKY/WX    TMP DP  RH WIND       PRES   REMARKS
CHANUTE        RAIN      69  67  93 SW7       29.93R FOG
COFFEYVILLE    CLOUDY    70  69  97 SW5       29.92R
HUTCHINSON     MOSUNNY   73  65  75 CALM      29.89S
MEDICINE LODGE   N/A     75  65  70 NW8       29.90F
NEWTON         PTSUNNY   70  63  78 S10       29.93S
PARSONS        LGT RAIN  70  67  90 W7        29.93S FOG
WICHITA INTL   PTSUNNY   73  64  73 SW8       29.90S
WICHITA JABRA  PTSUNNY   74  65  73 W6        29.89F
WICHITA MCCONL PTSUNNY   74  69  84 VRB5      29.91S
WINFIELD       PTSUNNY   73  69  87 S7        29.93R
$$

KSZ007>012-019>026-033>040-048>060-102>105-291600-
NORTHEAST KANSAS

CITY           SKY/WX    TMP DP  RH WIND       PRES   REMARKS
CONCORDIA      CLOUDY    69  65  86 S9        29.84S
EMPORIA        LGT RAIN  69  67  93 SW8       29.90R
LAWRENCE       CLOUDY    78  66  66 SW7       29.88S
MANHATTAN      LGT RAIN  71  66  84 SW6       29.87F
MARYSVILLE     LGT RAIN  68  66  94 S8        29.86S
OLATHE IND     PTSUNNY   75  65  70 SW9       29.90R
OLATHE EXE     MOSUNNY   76  66  71 S9        29.88S
SALINA         PTSUNNY   73  65  75 S12       29.87S
TOPEKA BILLARD LGT RAIN  73  68  84 SW9       29.89R
TOPEKA FORBES  LGT RAIN  70  68  93 SW8       29.89R FOG
$$


USA.gov is the U.S. government's official web portal to all federal, state and local government web resources and services.